Location: Allen Fire Department Station 4
(33.1073°N, 96.6988°W)
Time: 10:25:18
(UTC+00:00)

Cosmos 773 Rocket - Pass Details

Date: 03 December 2021
Orbit: 746 x 776 km, 74.1° (Epoch: 24 January)

Event Time Altitude Azimuth Distance (km) Brightness Sun altitude
Rises 12:41:19 0° 345° (NNW) 3,230 6.9 -7.1°
Reaches altitude 10° 12:43:43 10° 348° (NNW) 2,296 6.1 -6.6°
Maximum altitude 12:48:55 73° 73° (ENE) 791 4.3 -5.6°
Drops below altitude 10° 12:54:03 10° 158° (SSE) 2,264 7.2 -4.6°
Sets 12:56:23 0° 160° (SSE) 3,181 7.9 -4.2°
